Hayward, WI

4:01 AM CDT on October 01, 2016 (GMT -0500)
Sawyer County

Weather History for KHYR - March, 2013

Change the Weather History Date:

Monday, March 25, 2013

  Actual Average Record
Temperature  
Mean Temperature 18 °F -  
Max Temperature 34 °F 39 °F 78 °F (2007)
Min Temperature 3 °F 20 °F -11 °F (2002)
Degree Days  
Heating Degree Days 46    
Moisture  
Dew Point 13 °F    
Average Humidity 70    
Maximum Humidity 89    
Minimum Humidity 52    
Precipitation  
Precipitation 0.00 in - - ()
Sea Level Pressure  
Sea Level Pressure 30.13 in    
Wind  
Wind Speed 2 mph (NNE)    
Max Wind Speed 8 mph    
Max Gust Speed 16 mph    
Visibility 10 miles    
Events      
Averages and records for this station are not official NWS values.
T = Trace of Precipitation, MM = Missing Value Source: NWS Daily Summary

Daily Weather History Graph

Daily Weather History Graph

Search for Another Location

Airport or City:

Trip Planner

Search our weather history database for the weather conditions in past years. The results will help you decide how hot, cold, wet, or windy it might be!

Date:

Astronomy

Mar. 25, 2013 Rise Set
Actual Time 6:58 AM CDT 7:25 PM CDT
Civil Twilight 6:28 AM CDT 7:55 PM CDT
Nautical Twilight 5:53 AM CDT 8:30 PM CDT
Astronomical Twilight 5:16 AM CDT 9:07 PM CDT
Moon 5:54 PM CDT (3/25) 5:46 AM CDT (3/25)
Length of Visible Light 13h 26m
Length of Day
12h 26m
Waxing Gibbous, 96% of the Moon is Illuminated
Mar 25
Waxing Gibbous
Mar 27
Full
Apr 2
Last Quarter
Apr 10
New
Apr 18
First Quarter

Hourly Weather History & Observations

Time (CDT) Temp. Windchill Dew Point Humidity Pressure Visibility Wind Dir Wind Speed Gust Speed Precip Events Conditions
12:53 AM 10.9 °F - 6.1 °F 81% 30.08 in 10.0 mi Calm Calm - N/A   Clear
1:53 AM 10.0 °F - 5.0 °F 80% 30.08 in 10.0 mi Calm Calm - N/A   Clear
2:53 AM 6.1 °F - 1.9 °F 83% 30.08 in 10.0 mi Calm Calm - N/A   Clear
3:53 AM 6.1 °F - -0.0 °F 76% 30.07 in 10.0 mi Calm Calm - N/A   Clear
4:53 AM 5.0 °F - -0.0 °F 80% 30.08 in 10.0 mi Calm Calm - N/A   Clear
5:53 AM 3.0 °F - -2.0 °F 80% 30.09 in 10.0 mi Calm Calm - N/A   Clear
6:53 AM 3.0 °F - -2.0 °F 80% 30.10 in 10.0 mi Calm Calm - N/A   Scattered Clouds
7:02 AM 5.0 °F - -0.4 °F 78% 30.02 in 10.0 mi Calm Calm - N/A   Mostly Cloudy
7:53 AM 10.9 °F - 8.1 °F 88% 30.11 in 10.0 mi Calm Calm - N/A   Overcast
8:53 AM 19.9 °F - 17.1 °F 89% 30.12 in 10.0 mi Calm Calm - N/A   Overcast
9:00 AM 21.2 °F - 17.6 °F 86% 30.05 in 10.0 mi Calm Calm - N/A   Overcast
9:53 AM 27.0 °F 20.5 °F 21.0 °F 78% 30.12 in 10.0 mi Variable 5.8 mph - N/A   Overcast
10:22 AM 28.4 °F 22.2 °F 21.2 °F 74% 30.06 in 10.0 mi Variable 5.8 mph - N/A   Overcast
10:53 AM 30.9 °F 24.3 °F 19.9 °F 64% 30.13 in 10.0 mi North 6.9 mph 16.1 mph N/A   Overcast
11:53 AM 30.9 °F 26.2 °F 19.0 °F 61% 30.14 in 10.0 mi Variable 4.6 mph - N/A   Overcast
12:53 PM 32.0 °F 25.6 °F 19.0 °F 59% 30.15 in 10.0 mi Variable 6.9 mph - N/A   Overcast
1:50 PM 32.0 °F 25.6 °F 17.6 °F 55% 30.08 in 10.0 mi NNE 6.9 mph - N/A   Overcast
1:53 PM 32.0 °F 24.8 °F 18.0 °F 56% 30.15 in 10.0 mi NNE 8.1 mph - N/A   Overcast
2:53 PM 33.1 °F 28.7 °F 19.0 °F 56% 30.15 in 10.0 mi Variable 4.6 mph - N/A   Overcast
3:53 PM 33.1 °F 26.9 °F 19.0 °F 56% 30.16 in 10.0 mi Variable 6.9 mph - N/A   Overcast
4:53 PM 33.1 °F 26.9 °F 18.0 °F 54% 30.17 in 10.0 mi Variable 6.9 mph - N/A   Overcast
5:53 PM 34.0 °F 29.8 °F 18.0 °F 52% 30.18 in 10.0 mi NNE 4.6 mph - N/A   Overcast
6:53 PM 33.1 °F - 18.0 °F 54% 30.20 in 10.0 mi Calm Calm - N/A   Overcast
7:53 PM 30.9 °F - 18.0 °F 59% 30.20 in 10.0 mi Calm Calm - N/A   Overcast
8:53 PM 30.0 °F - 19.0 °F 64% 30.21 in 10.0 mi Calm Calm - N/A   Overcast
9:53 PM 28.9 °F - 19.9 °F 69% 30.22 in 10.0 mi Calm Calm - N/A   Overcast
10:53 PM 30.0 °F - 19.9 °F 66% 30.22 in 10.0 mi Calm Calm - N/A   Overcast
11:53 PM 28.9 °F - 19.9 °F 69% 30.22 in 10.0 mi Calm Calm - N/A   Overcast